Location: Unspecified
(50.1700°N, 6.8600°E)
Time: 09:51:41
(UTC+00:00)

Cosmos 1943 Rocket - Pass Details

Date: 24 January 2019
Orbit: 811 x 845 km, 71.0° (Epoch: 20 February)

Event Time Altitude Azimuth Distance (km) Brightness Sun altitude
Exits shadow 06:00:59 16° 297° (WNW) 2,030 3.6 -12.1°
Maximum altitude 06:03:02 19° 324° (NW) 1,862 3.6 -11.8°
Drops below altitude 10° 06:06:58 10° 9° (N) 2,436 4.5 -11.2°
Sets 06:10:09 0° 27° (NNE) 3,379 5.5 -10.7°
